sat.trackr.live / text

‹ back to catalog

STARLINK-30075

NORAD 57616 · 2023-119Q

PAYLOAD ACTIVE UNKNOWN

§ Identity

Operator
Country
US
Launch date
2023-08-11
Launch site
AFETR
Launch vehicle
Mass (kg)
RCS (m²)

Purposes: comms

External: N2YO · Heavens-Above · Gunter

§ Orbital elements

Epoch: 2026-09-20T03:59:29.650560Z

Period
94.27 min
Inclination
43.0043°
Eccentricity
0.0002832
Mean motion
15.27582811 rev/d
Perigee alt
481.1 km
Apogee alt
485.0 km
Semi-major
6,861.2 km
B*
4.6987e-6
RAAN
62.8933°
Arg perigee
261.9178°
Mean anomaly
98.1353°
Rev number
17,283

§ Raw data

STARLINK-300751 57616U 23119Q   26263.16631540 -.00000134  00000+0  46987-5 0  99932 57616  43.0043  62.8933 0002832 261.9178  98.1353 15.27582811172831

JSON: /api/v1/satellites/57616 · /tle

For live sub-satellite position, see the globe view (requires WebGL).

§ Visibility from observer

Set your observer location to see the next 7 days of passes ≥ 10°. The values pass through the URL so the page stays shareable.

No JS? Fill the form by hand. The geolocation button needs JavaScript.